Back to catalog

GYEONGGISAT-1

AliveScienceSSO
NORAD 66771·PAYLOAD·🇰🇷 South Korea

Launched Nov 28, 2025 from Vandenberg Space Force Base

Loading…

Next Passes (next 24 hours)

TLE

FreshSource: Space-Track

Epoch: Sep 14, 2026, 11:25 UTC

1 66771U 25276DK  26257.47606996  .00004536  00000-0  20428-3 0  9995
2 66771  97.4158 330.0913 0000333  16.7054 343.4193 15.21566396 44014

Track GYEONGGISAT-1 in real time with AllMySat

Download on the App Store